Volver al catálogo

ORBVIEW 1

MICROLAB

ActivoCienciaLEO
NORAD 23547·PAYLOAD·🇺🇸 United States

Lanzado Apr 3, 1995 desde Vandenberg Space Force Base

Loading…

Próximos Pases (próximas 24 horas)

TLE

ActualizadoSource: Space-Track

Época: Sep 14, 2026, 07:35 UTC

1 23547U 95017C   26257.31609195  .00000967  00000-0  18235-3 0  9993
2 23547  69.9778  10.4579 0010474 213.4509 146.5974 14.67613501671368

Sigue ORBVIEW 1 en tiempo real con AllMySat

Download on the App Store